Simultaneous Nadir Overpasses (SNOs) Predictions

Prediction of SNOs between GOES-16 and NOAA-19 Satellite Orbit:

Table of predicted SNOs for the next 14.0 days since TLE Epoch: 1/29/2022
Index Date Time (GOES-16) GOES-16 Lat,Lon NOAA-19 Lat,Lon Distance(km) Time Diff (sec)
1 01/30/2022 00:16:09 0.04, -75.20 0.67, -72.58 299.19 80
2 02/01/2022 12:39:31 -0.02, -75.21 0.48, -77.48 257.89 80
3 02/02/2022 12:25:02 -0.02, -75.22 -0.14, -74.59 71.24 80
4 02/03/2022 12:13:15 -0.01, -75.22 -0.82, -71.71 400.52 80
5 02/05/2022 00:48:28 0.00, -75.22 -0.97, -79.51 489.28 80
6 02/06/2022 00:36:41 0.00, -75.23 -0.31, -76.63 159.63 80
7 02/07/2022 00:22:13 0.01, -75.24 0.36, -73.75 170.17 80
8 02/09/2022 12:45:33 -0.00, -75.30 0.78, -78.64 382.22 80
9 02/10/2022 12:33:46 -0.00, -75.31 0.09, -75.77 52.00 80
10 02/11/2022 12:19:18 -0.00, -75.33 -0.59, -72.90 278.38 80
